When you browse on this site, cookies collect data to enhance your experience and personalize the content and advertising you see.
Visit our Privacy Policy to learn more. By continuing to use the site, you agree to this use of cookies and data.
  • In Hungary
  • List of Countries
  • For 7 days
  • Water Temperature
  • Weather Map
  • News
  • Weather Widgets
  • user-avatar
    Login

    Hourly Weather Mishutki

    Today, 13 December, Friday

    Time Temperature Precipitation Wind Pressure Humidity
    00:00 -1°C° 0 mm 5 mps 745 mmHg 91%
    01:00 -1°C° 0 mm 5 mps 745 mmHg 91%
    02:00 0°C° 0 mm 5 mps 745 mmHg 92%
    03:00 0°C° 0 mm 5 mps 745 mmHg 91%
    04:00 -1°C° 0 mm 5 mps 744 mmHg 90%
    05:00 -1°C° 0 mm 5 mps 744 mmHg 88%
    06:00 -1°C° 0 mm 5 mps 744 mmHg 88%
    07:00 -1°C° 0 mm 4 mps 744 mmHg 88%
    08:00 -1°C° 0 mm 4 mps 744 mmHg 87%
    09:00 -1°C° 0 mm 4 mps 744 mmHg 87%
    10:00 -1°C° 0 mm 4 mps 743 mmHg 86%
    11:00 -1°C° 0 mm 5 mps 743 mmHg 86%
    12:00 -1°C° 0 mm 5 mps 743 mmHg 88%
    13:00 -1°C° 0 mm 5 mps 743 mmHg 91%
    14:00 -1°C° 0 mm 5 mps 742 mmHg 93%
    15:00 -1°C° 0 mm 5 mps 742 mmHg 92%
    16:00 -1°C° 0 mm 5 mps 742 mmHg 90%
    17:00 -1°C° 0 mm 5 mps 741 mmHg 89%
    18:00 -1°C° 0 mm 5 mps 741 mmHg 89%
    19:00 -1°C° 0 mm 5 mps 741 mmHg 90%
    20:00 -1°C° 0 mm 5 mps 741 mmHg 91%
    21:00 -1°C° 0 mm 5 mps 741 mmHg 89%
    22:00 -1°C° 0 mm 5 mps 741 mmHg 86%
    23:00 -2°C° 0 mm 6 mps 741 mmHg 84%

    Tomorrow, 14 December, Saturday

    Time Temperature Precipitation Wind Pressure Humidity
    00:00 -1°C° 0 mm 5 mps 741 mmHg 84%
    01:00 -1°C° 0 mm 5 mps 741 mmHg 83%
    02:00 -1°C° 0 mm 5 mps 741 mmHg 83%
    03:00 -1°C° 0 mm 5 mps 741 mmHg 83%
    04:00 -1°C° 0 mm 5 mps 741 mmHg 83%
    05:00 -1°C° 0 mm 5 mps 741 mmHg 83%
    06:00 -3°C° 0 mm 6 mps 741 mmHg 83%
    07:00 -3°C° 0 mm 6 mps 741 mmHg 84%
    08:00 -3°C° 0 mm 6 mps 741 mmHg 85%
    09:00 -2°C° 0 mm 6 mps 741 mmHg 84%
    10:00 -2°C° 0 mm 6 mps 741 mmHg 83%
    11:00 -2°C° 0 mm 6 mps 741 mmHg 82%
    12:00 -1°C° 0 mm 5 mps 741 mmHg 83%
    13:00 -1°C° 0 mm 5 mps 741 mmHg 85%
    14:00 -1°C° 0 mm 5 mps 741 mmHg 86%
    15:00 -1°C° 0.1 mm 5 mps 741 mmHg 89%
    16:00 -1°C° 0.1 mm 5 mps 741 mmHg 93%
    17:00 -1°C° 0.1 mm 5 mps 741 mmHg 96%
    18:00 -1°C° 0.1 mm 5 mps 741 mmHg 95%
    19:00 -1°C° 0.1 mm 6 mps 741 mmHg 95%
    20:00 -1°C° 0.1 mm 6 mps 740 mmHg 95%
    21:00 -1°C° 0.1 mm 6 mps 740 mmHg 94%
    22:00 +1°C° 0.1 mm 6 mps 740 mmHg 92%
    23:00 +1°C° 0.1 mm 6 mps 740 mmHg 91%

    Day after tomorrow, 15 December, Sunday

    Time Temperature Precipitation Wind Pressure Humidity
    00:00 +1°C° 0.1 mm 5 mps 739 mmHg 91%
    01:00 +1°C° 0.1 mm 5 mps 739 mmHg 92%
    02:00 +1°C° 0.1 mm 5 mps 739 mmHg 92%
    03:00 +1°C° 0.2 mm 5 mps 738 mmHg 92%
    04:00 +1°C° 0.2 mm 5 mps 738 mmHg 92%
    05:00 +2°C° 0.2 mm 5 mps 737 mmHg 92%
    06:00 +2°C° 0.3 mm 5 mps 737 mmHg 92%
    07:00 +2°C° 0.3 mm 5 mps 737 mmHg 92%
    08:00 +2°C° 0.3 mm 5 mps 737 mmHg 92%
    09:00 +2°C° 0.2 mm 6 mps 738 mmHg 89%
    10:00 +2°C° 0.2 mm 6 mps 738 mmHg 85%
    11:00 +2°C° 0.2 mm 6 mps 739 mmHg 81%
    12:00 +1°C° 0 mm 5 mps 739 mmHg 79%
    13:00 +1°C° 0 mm 5 mps 740 mmHg 77%
    14:00 +1°C° 0 mm 4 mps 741 mmHg 74%
    15:00 +1°C° 0 mm 4 mps 741 mmHg 76%
    16:00 +1°C° 0 mm 4 mps 741 mmHg 78%
    17:00 +1°C° 0 mm 4 mps 742 mmHg 80%
    18:00 0°C° 0 mm 4 mps 741 mmHg 83%
    19:00 0°C° 0 mm 5 mps 741 mmHg 86%
    20:00 0°C° 0 mm 5 mps 741 mmHg 89%
    21:00 +1°C° 0.2 mm 6 mps 741 mmHg 89%
    22:00 +1°C° 0.2 mm 6 mps 740 mmHg 90%
    23:00 +2°C° 0.2 mm 7 mps 740 mmHg 90%

    16 December, Monday

    Time Temperature Precipitation Wind Pressure Humidity
    00:00 +2°C° 0.2 mm 6 mps 740 mmHg 88%
    01:00 +2°C° 0.2 mm 6 mps 741 mmHg 85%
    02:00 +3°C° 0.2 mm 5 mps 741 mmHg 83%
    03:00 +2°C° 0 mm 5 mps 742 mmHg 83%
    04:00 +1°C° 0 mm 5 mps 742 mmHg 84%
    05:00 0°C° 0 mm 5 mps 743 mmHg 84%
    06:00 0°C° 0 mm 5 mps 743 mmHg 84%
    07:00 0°C° 0 mm 5 mps 743 mmHg 84%
    08:00 -1°C° 0 mm 5 mps 744 mmHg 84%
    09:00 0°C° 0 mm 5 mps 744 mmHg 82%
    10:00 0°C° 0 mm 5 mps 745 mmHg 79%
    11:00 -1°C° 0 mm 6 mps 745 mmHg 77%
    12:00 0°C° 0 mm 5 mps 746 mmHg 76%
    13:00 +1°C° 0 mm 5 mps 746 mmHg 76%
    14:00 +1°C° 0 mm 5 mps 746 mmHg 76%
    15:00 0°C° 0 mm 4 mps 746 mmHg 79%
    16:00 -1°C° 0 mm 4 mps 747 mmHg 82%
    17:00 -1°C° 0 mm 4 mps 748 mmHg 84%
    18:00 0°C° 0 mm 3 mps 748 mmHg 85%
    19:00 -1°C° 0 mm 3 mps 748 mmHg 87%
    20:00 -1°C° 0 mm 3 mps 748 mmHg 88%
    21:00 -1°C° 0 mm 3 mps 748 mmHg 86%
    22:00 -1°C° 0 mm 3 mps 748 mmHg 84%
    23:00 -1°C° 0 mm 3 mps 748 mmHg 82%

    17 December, Tuesday

    Time Temperature Precipitation Wind Pressure Humidity
    00:00 0°C° 0 mm 3 mps 748 mmHg 84%
    01:00 0°C° 0 mm 3 mps 748 mmHg 86%
    02:00 +1°C° 0 mm 3 mps 748 mmHg 87%
    03:00 +1°C° 0.1 mm 3 mps 747 mmHg 90%
    04:00 +1°C° 0.1 mm 3 mps 747 mmHg 92%
    05:00 +2°C° 0.1 mm 3 mps 747 mmHg 95%
    06:00 +2°C° 0.2 mm 3 mps 747 mmHg 96%
    07:00 +2°C° 0.2 mm 3 mps 747 mmHg 96%
    08:00 +2°C° 0.2 mm 3 mps 747 mmHg 97%
    09:00 +3°C° 0.1 mm 2 mps 747 mmHg 97%
    10:00 +3°C° 0.1 mm 2 mps 747 mmHg 97%
    11:00 +3°C° 0.1 mm 2 mps 747 mmHg 96%
    12:00 +3°C° 0.1 mm 2 mps 747 mmHg 96%
    13:00 +3°C° 0.1 mm 2 mps 747 mmHg 96%
    14:00 +3°C° 0.1 mm 2 mps 746 mmHg 95%
    15:00 +3°C° 0.1 mm 2 mps 746 mmHg 95%
    16:00 +3°C° 0.1 mm 2 mps 746 mmHg 95%
    17:00 +3°C° 0.1 mm 2 mps 746 mmHg 95%
    18:00 +3°C° 0 mm 2 mps 746 mmHg 95%
    19:00 +2°C° 0 mm 2 mps 746 mmHg 95%
    20:00 +1°C° 0 mm 3 mps 746 mmHg 96%
    21:00 +1°C° 0 mm 3 mps 746 mmHg 96%
    22:00 +2°C° 0 mm 2 mps 746 mmHg 95%
    23:00 +2°C° 0 mm 2 mps 746 mmHg 95%

    18 December, Wednesday

    Time Temperature Precipitation Wind Pressure Humidity
    00:00 +2°C° 0 mm 2 mps 746 mmHg 96%
    01:00 +2°C° 0 mm 2 mps 746 mmHg 96%
    02:00 +2°C° 0 mm 2 mps 746 mmHg 96%
    03:00 +2°C° 0 mm 2 mps 746 mmHg 96%
    04:00 +2°C° 0 mm 2 mps 745 mmHg 96%
    05:00 +2°C° 0 mm 2 mps 745 mmHg 95%
    06:00 +2°C° 0 mm 2 mps 745 mmHg 95%
    07:00 +2°C° 0 mm 2 mps 745 mmHg 95%
    08:00 +2°C° 0 mm 2 mps 745 mmHg 95%
    09:00 +2°C° 0 mm 2 mps 745 mmHg 94%
    10:00 +2°C° 0 mm 2 mps 745 mmHg 93%
    11:00 +3°C° 0 mm 2 mps 745 mmHg 93%
    12:00 +3°C° 0 mm 2 mps 745 mmHg 92%
    13:00 +3°C° 0 mm 2 mps 745 mmHg 92%
    14:00 +3°C° 0 mm 2 mps 744 mmHg 92%
    15:00 +3°C° 0 mm 2 mps 744 mmHg 93%
    16:00 +3°C° 0 mm 2 mps 745 mmHg 94%
    17:00 +2°C° 0 mm 2 mps 745 mmHg 94%
    18:00 +2°C° 0 mm 2 mps 744 mmHg 94%
    19:00 +1°C° 0 mm 3 mps 744 mmHg 94%
    20:00 +1°C° 0 mm 3 mps 744 mmHg 94%
    21:00 +1°C° 0 mm 3 mps 744 mmHg 93%
    22:00 +2°C° 0 mm 3 mps 743 mmHg 93%
    23:00 +1°C° 0 mm 4 mps 743 mmHg 93%
    Show more